#timestamp,LO_Frequency,Hit 
1504443615.1,286046999.1,N
1504443635.9,286046996.8,N
1504443655.7,286046997.0,N
1504443675.5,286046996.6,N
1504443695.4,286046998.3,N
1504443715.2,286047002.0,N
1504443735.0,286047003.8,N
1504443735.9,286047003.8,N
1504443755.8,286047004.0,N
1504443775.6,286047001.5,N
1504443795.4,286047003.3,N
1504443815.3,286047001.9,N
1504443835.1,286046998.4,N
1504443836.0,286046998.4,N
1504443855.8,286046995.0,N
1504443875.7,286046994.2,N
1504443895.5,286046994.5,N
1504443915.3,286046991.1,N
1504443935.1,286046991.0,N
1504443955.9,286046988.6,N
1504443975.7,286046989.8,N
1504443995.5,286046986.4,N
1504444015.4,286046988.8,N
1504444035.2,286046989.6,N
1504444055.0,286046991.5,N
1504444055.9,286046991.5,N
1504444075.8,286046991.6,N
1504444095.6,286046991.4,N
1504444115.4,286046990.5,N
1504444135.3,286046993.1,N
1504444155.1,286046995.1,N
1504444156.0,286046995.1,N
1504444175.8,286046997.6,N
1504444195.7,286046995.5,N
1504444215.5,286046994.3,N
1504444235.3,286046993.1,N
1504444255.2,286046992.7,N
1504444275.9,286046995.8,N
1504444295.7,286046992.9,N
1504444315.6,286046993.0,N
1504444335.4,286046994.8,N
1504444355.2,286046991.2,N
1504444375.1,286046990.1,P
1504444376.0,286046990.1,P
1504444395.8,286046998.7,N
1504444415.6,286046995.1,N
1504444435.5,286046997.7,N
1504444455.3,286046995.4,N
1504444475.1,286047000.8,N
1504444495.9,286047004.3,N
1504444515.7,286047001.4,N
1504444535.5,286047005.4,N
1504444555.3,286047003.1,N
1504444575.2,286047006.3,N
1504444595.0,286047007.4,N
1504444595.9,286047007.4,N
1504444615.7,286047007.6,N
1504444635.6,286047003.3,N
1504444655.4,286047003.4,N
1504444675.2,286047004.2,N
1504444695.1,286047005.8,N
1504444696.0,286047005.8,N
1504444715.8,286047009.0,N
1504444735.6,286047005.7,N
1504444755.5,286047004.9,N
1504444775.3,286047007.9,N
1504444795.1,286047012.4,N
1504444815.9,286047012.1,N
1504444835.7,286047008.4,N
1504444855.5,286047008.0,N
1504444875.4,286047008.7,N
1504444895.2,286047003.6,N
1504444915.0,286046999.8,N
1504444915.9,286046999.8,N
1504444935.7,286047001.1,N
1504444955.6,286047000.2,N
1504444975.4,286047001.9,N
1504444995.2,286047005.6,N
1504445015.1,286047004.0,N
1504445016.0,286047004.0,N
1504445035.8,286047002.3,N
1504445055.6,286047001.5,N
1504445075.5,286047003.4,N
1504445095.3,286047004.4,N
1504445115.1,286047001.2,N
1504445135.9,286046997.6,N
1504445155.7,286047001.2,N
1504445175.5,286046999.7,N
1504445195.4,286047000.4,N
1504445215.2,286047000.9,N
1504445235.0,286047002.7,N
1504445235.9,286047002.7,N
1504445255.8,286047000.2,N
1504445275.6,286047000.1,N
1504445295.4,286047001.8,N
1504445315.3,286047003.2,N
1504445335.1,286047005.1,N
1504445336.0,286047005.1,N
1504445355.8,286047003.6,N
1504445375.7,286046999.8,N
1504445395.5,286047002.3,N
1504445415.3,286047001.6,N
1504445435.2,286047003.3,N
1504445455.9,286047001.1,N
1504445475.7,286046998.7,N
1504445495.6,286046998.6,N
1504445515.4,286047001.2,N
1504445535.2,286047000.5,N
1504445555.0,286046999.7,N
1504445556.0,286046999.7,N
1504445575.8,286047006.0,P
1504445595.6,286047006.1,N
1504445615.5,286047003.0,N
1504445635.3,286047001.9,N
1504445655.1,286047004.3,N
1504445675.9,286047005.5,N
1504445695.7,286047005.1,N
1504445715.5,286047003.4,N
1504445735.4,286047005.3,P
1504445755.2,286046998.5,N
1504445775.0,286046997.7,N
1504445775.9,286046997.7,N
1504445795.8,286046995.0,N
1504445815.6,286046994.3,N
1504445835.4,286046993.6,N
1504445855.3,286046999.2,N
1504445875.1,286046999.1,N
1504445876.0,286046999.1,N
1504445895.8,286046996.8,N
1504445915.7,286046997.6,N
1504445935.5,286046995.1,N
1504445955.3,286046995.0,N
1504445975.1,286046996.4,N
1504445995.9,286046993.4,N
1504446015.7,286046992.5,N
1504446035.5,286046997.8,N
1504446055.4,286046996.0,N
1504446075.2,286046994.1,N
1504446095.0,286046993.1,N
1504446095.9,286046993.1,N
1504446115.8,286046990.4,N
1504446135.6,286046992.1,N
1504446155.4,286046993.4,N
1504446175.3,286046997.4,N
1504446195.1,286046996.0,N
1504446196.0,286046996.0,N
1504446215.8,286046993.4,N
1504446235.7,286046997.7,N
1504446255.5,286046995.6,N
1504446275.3,286046997.5,N
1504446295.2,286046995.2,N
1504446315.9,286046992.0,P
1504446335.7,286046996.9,N
1504446355.6,286046999.2,N
1504446375.4,286047001.2,N
1504446395.2,286046995.1,N
1504446415.0,286046994.0,N
1504446416.0,286046994.0,N
1504446435.0,286046993.5,N
1504446435.9,286046993.5,N
1504446455.8,286046990.7,P
1504446475.6,286046995.5,N
1504446495.4,286046993.3,N
1504446515.3,286046997.5,N
1504446535.1,286046997.6,N
1504446555.8,286046995.1,N
1504446575.7,286046995.3,N
1504446595.5,286046997.6,N
1504446615.3,286046999.4,N
1504446635.2,286047001.1,N
1504446655.9,286047000.1,N
1504446675.7,286047000.8,N
1504446695.9,286046998.1,N
1504446715.7,286046999.8,N
1504446735.6,286047000.8,N
1504446755.4,286047000.3,N
1504446775.2,286046999.5,N
1504446795.0,286046997.4,N
1504446796.0,286046997.4,N
1504446815.8,286046998.0,N
1504446835.6,286046996.7,N
1504446855.4,286047001.0,N
1504446875.3,286047000.2,N
1504446895.1,286046999.0,N
1504446915.8,286046996.6,N
1504446935.7,286046996.7,N
1504446955.5,286046997.8,N
1504446975.3,286046995.7,N
1504446995.2,286046995.0,N
1504447015.9,286046995.7,N
1504447035.7,286046994.7,N
1504447055.6,286046990.9,P
1504447075.4,286046995.7,N
1504447095.2,286046996.4,N
1504447115.1,286046994.2,N
1504447116.0,286046994.2,N
1504447135.8,286046999.5,N
1504447155.6,286046998.4,N
1504447175.5,286046999.7,N
1504447195.3,286047000.6,N
